• Join FlightAware (Why Join?)
  • Login
  • US Flag 
08:08PM EDT


 

Airport Tracker/Info


-or-


 

Live Flight TrackerFlight Track Log ✈ N43755 ✈ 29-Jun-2013 ✈ KYIP - KARB

Flight Track Log - Related Links

Times and Time Zones

All times are in EDT time to prevent confusion due to time zone crossing. See the N43755 flight status page for this flight to view local times or setup timezone preferences in your user account.

Time Position Orientation Groundspeed Altitude Reporting Facility
EDT Latitude Longitude Course Direction KTS MPH feet Rate Location/Type
09:34AM 42.2450 -83.5425 278° West 87 100 1,000  Level Cleveland Center
09:35AM 42.2467 -83.5594 278° West 84 97 1,400 600 Climbing Cleveland Center
09:36AM 42.2497 -83.5931 277° West 91 105 2,000 600 Climbing Cleveland Center
09:37AM 42.2531 -83.6242 278° West 92 106 2,700 660 Climbing Cleveland Center
09:38AM 42.2544 -83.6578 273° West 93 107 3,300 600 Climbing Cleveland Center
09:39AM 42.2533 -83.6944 268° West 102 117 3,900 540 Climbing Cleveland Center
09:40AM 42.2400 -83.7244 239° Southwest 104 120 4,500 420 Climbing Cleveland Center
09:40AM 42.2225 -83.7544 232° Southwest 103 119 4,800 180 Climbing Cleveland Center
09:42AM 42.1947 -83.7839 218° Southwest 116 133 4,900  Climbing Cleveland Center
09:43AM 42.1831 -83.8256 249° West 122 140 4,800  Descending Cleveland Center
09:44AM 42.1656 -83.8581 234° Southwest 102 117 4,900 -180 Climbing Cleveland Center
09:45AM 42.1436 -83.8906 228° Southwest 113 130 4,500 -480 Descending Cleveland Center
09:46AM 42.1258 -83.9344 241° Southwest 116 133 3,900 -360 Descending Cleveland Center
09:47AM 42.1039 -83.9669 228° Southwest 110 127 3,800 -420 Descending Cleveland Center
09:48AM 42.0764 -83.9794 199° South 121 139 3,100 -480 Descending Cleveland Center
09:49AM 42.0528 -84.0061 220° Southwest 103 119 2,900 -120 Descending Cleveland Center
09:50AM 42.0586 -84.0178 304° West 89 102 2,900  Level Cleveland Center
09:51AM 42.0797 -84.0078 19° North 89 102 3,000  Climbing Cleveland Center
09:52AM 42.0994 -83.9750 51° Northeast 104 120 2,900 -300 Descending Cleveland Center
09:53AM 42.1169 -83.9453 52° Northeast 109 125 2,400 -540 Descending Cleveland Center